Weather in Keskil

Russia / Sakha (Yakutia) Republic     62°39′09″N   135°00′22″E
temp.,
°C
wind,
m/s
gust,
m/s
humid.,
%
clouds,
%
prec.,
mm/h
press.,
hPa
HPBL,
m
26 february, fri
fri2600:00−35s009855 0.0 103319
03:00−35ssw009864 0.0 103319
06:00−35e009799 0.0 103419
09:00−32ne0096100 0.0 103563
12:00−28se018894 0.0 1035348
15:00−27ene108797 0.0 1034419
18:00−31ene1194100 0.0 103619
21:00−33e119579 0.0 103519
27 february, sat
sat2700:00−35ene11970 0.0 103519
03:00−35e11970 0.0 103419
06:00−37ene11970 0.0 103419
09:00−33e01950 0.0 103235
12:00−27ene118717 0.0 1030304
15:00−25ne128639 0.0 1027367
18:00−30nne119319 0.0 102619
21:00−32ne11929 0.0 102319
28 february, sun
sun2800:00−33nnw11880 0.0 102019
03:00−32n12850 0.0 101819
06:00−30nne228456 0.0 101722
09:00−26n138348 0.0 1017108
12:00−20ne248156 0.0 1016303
15:00−19e128078 0.0 1017416
18:00−25ne119299 0.0 102020
21:00−27wsw019598 0.0 102119
1 march, mon
mon100:00−28sw119996 0.0 102219
03:00−29sw119797 0.0 102319
06:00−29sw229799 0.0 102458
09:00−28wsw2396100 0.1 1024239
12:00−26wsw1289100 0.1 1023459
15:00−25wsw1291100 0.2 1024564
18:00−27w1198100 0.1 102519
21:00−28w1198100 0.1 102519
2 march, tue
tue200:00−28w1198100 0.0 102419
03:00−29w1199100 0.2 102419
06:00−29wnw1199100 0.2 102519
09:00−28wnw1196100 0.3 1025163
12:00−25w008797 0.0 1025560
15:00−25w008398 0.1 1025745
18:00−30nw1196100 0.0 102619
21:00−32wnw11100100 0.1 102719